Date String (YYYY-MM-DD hh:mm:ss) UTC,Instrument flags,Ambient pressure (hPa),Sample flow (lpm),Bypass flow (lpm),Sample temperature (°C),Ambient temperature (°C),ASC tube jacket temperature (°C),LED temperature (°C),Box temperature (°C),Sample RH (%),Span deviation,Mass concentration (μg/m³),Mass concentration (μg/m³),Mass concentration (μg/m³)
DateTimeUTC,F1_M11,P_M11,Q1_M11,Q2_M11,T1_M11,T2_M11,T3_M11,T4_M11,T5_M11,U1_M11,ZSPAN_M11,X0_M11,X2_M11,X1_M11
2022-09-26 22:00:00,,0831.6,5.01,0.00,29.8,28.3,00.0,38.4,31.7,15.2,0000.0,0011.74,0004.16,0003.66
2022-09-26 22:01:00,,0831.6,4.99,0.00,29.8,28.5,00.0,38.4,31.8,15.2,0000.0,0011.70,0004.18,0003.65
2022-09-26 22:02:00,,0831.5,4.99,0.00,29.8,28.7,00.0,38.4,31.8,15.5,0000.0,0011.86,0004.20,0003.65
2022-09-26 22:03:00,,0831.6,5.02,0.00,29.9,28.8,00.0,38.5,31.9,15.6,0000.0,0011.64,0004.22,0003.66
2022-09-26 22:04:00,,0831.6,4.99,0.00,29.9,27.7,00.0,38.5,31.9,15.2,0000.0,0011.68,0004.24,0003.67
2022-09-26 22:05:00,,0831.5,4.99,0.00,29.9,26.6,00.0,38.4,31.7,14.9,0000.0,0011.35,0004.20,0003.65
2022-09-26 22:06:00,,0831.6,5.00,0.00,29.8,26.6,00.0,38.4,31.7,15.2,0000.0,0010.91,0004.22,0003.65
2022-09-26 22:07:00,,0831.6,5.00,0.00,29.8,26.9,00.0,38.4,31.5,15.1,0000.0,0010.68,0004.21,0003.65
2022-09-26 22:08:00,,0831.6,5.01,0.00,29.7,27.2,00.0,38.3,31.5,15.2,0000.0,0011.06,0004.24,0003.64
2022-09-26 22:09:00,,0831.5,5.01,0.00,29.7,27.6,00.0,38.3,31.5,15.2,0000.0,0010.51,0004.21,0003.64
2022-09-26 22:10:00,,0831.5,4.99,0.00,29.7,27.9,00.0,38.4,31.6,14.9,0000.0,0010.11,0004.21,0003.64
2022-09-26 22:11:00,,0831.5,5.01,0.00,29.8,28.1,00.0,38.4,31.7,15.0,0000.0,0009.77,0004.22,0003.63
2022-09-26 22:12:00,,0831.5,4.99,0.00,29.8,28.3,00.0,38.4,31.7,15.2,0000.0,0010.15,0004.17,0003.62
2022-09-26 22:13:00,,0831.5,5.00,0.00,29.8,28.5,00.0,38.4,31.8,15.1,0000.0,0010.68,0004.15,0003.61
2022-09-26 22:14:00,,0831.5,5.01,0.00,29.9,28.7,00.0,38.4,31.9,15.3,0000.0,0010.39,0004.12,0003.59
2022-09-26 22:15:00,,0831.5,5.00,0.00,29.9,28.6,00.0,38.5,31.9,15.4,0000.0,0010.49,0004.16,0003.58
2022-09-26 22:16:00,,0831.5,5.01,0.00,29.9,27.4,00.0,38.4,31.8,15.1,0000.0,0010.39,0004.19,0003.58
2022-09-26 22:17:00,,0831.5,4.99,0.00,29.8,26.5,00.0,38.4,31.6,15.3,0000.0,0011.27,0004.16,0003.58
2022-09-26 22:18:00,,0831.5,5.00,0.00,29.8,26.6,00.0,38.4,31.6,15.1,0000.0,0011.22,0004.20,0003.58
2022-09-26 22:19:00,,0831.5,5.00,0.00,29.7,26.9,00.0,38.3,31.5,15.1,0000.0,0011.47,0004.21,0003.58
2022-09-26 22:20:00,,0831.5,5.00,0.00,29.7,27.3,00.0,38.3,31.5,15.2,0000.0,0011.55,0004.22,0003.57
2022-09-26 22:21:00,,0831.5,4.99,0.00,29.7,27.6,00.0,38.3,31.6,14.8,0000.0,0011.66,0004.23,0003.57
2022-09-26 22:22:00,,0831.5,5.01,0.00,29.7,27.9,00.0,38.3,31.6,15.2,0000.0,0011.67,0004.22,0003.57
2022-09-26 22:23:00,,0831.5,4.99,0.00,29.7,28.1,00.0,38.4,31.7,15.3,0000.0,0011.31,0004.21,0003.57
2022-09-26 22:24:00,,0831.5,5.01,0.00,29.8,28.3,00.0,38.4,31.7,15.2,0000.0,0010.42,0004.24,0003.57
2022-09-26 22:25:00,,0831.5,5.00,0.00,29.8,28.5,00.0,38.4,31.8,15.3,0000.0,0010.29,0004.22,0003.56
2022-09-26 22:26:00,,0831.5,4.99,0.00,29.9,28.7,00.0,38.4,31.9,15.0,0000.0,0009.79,0004.15,0003.55
2022-09-26 22:27:00,,0831.5,5.00,0.00,29.9,28.8,00.0,38.4,31.9,15.2,0000.0,0009.43,0004.09,0003.55
2022-09-26 22:28:00,,0831.5,5.00,0.00,29.9,27.8,00.0,38.5,31.8,15.1,0000.0,0008.45,0004.09,0003.54
2022-09-26 22:29:00,,0831.5,5.01,0.00,29.8,26.5,00.0,38.4,31.6,15.1,0000.0,0008.27,0004.06,0003.54
2022-09-26 22:30:00,,0831.5,5.00,0.00,29.8,26.5,00.0,38.4,31.5,15.2,0000.0,0007.61,0004.03,0003.54
2022-09-26 22:31:00,,0831.4,4.99,0.00,29.7,26.8,00.0,38.4,31.4,15.5,0000.0,0007.62,0004.04,0003.54
2022-09-26 22:32:00,,0831.5,5.01,0.00,29.7,27.1,00.0,38.3,31.4,15.4,0000.0,0007.80,0004.04,0003.53
2022-09-26 22:33:00,,0831.5,4.99,0.00,29.7,27.5,00.0,38.3,31.5,15.5,0000.0,0009.19,0004.06,0003.52
2022-09-26 22:34:00,,0831.4,5.01,0.00,29.7,27.8,00.0,38.3,31.6,15.6,0000.0,0009.53,0004.04,0003.51
2022-09-26 22:35:00,,0831.5,4.99,0.00,29.7,28.0,00.0,38.3,31.6,15.7,0000.0,0010.32,0004.01,0003.51
2022-09-26 22:36:00,,0831.5,5.01,0.00,29.7,28.3,00.0,38.4,31.7,15.6,0000.0,0010.70,0004.02,0003.52
2022-09-26 22:37:00,,0831.5,4.99,0.00,29.8,28.5,00.0,38.4,31.8,15.6,0000.0,0011.33,0004.03,0003.53
2022-09-26 22:38:00,,0831.4,5.02,0.00,29.8,28.7,00.0,38.4,31.8,15.6,0000.0,0011.34,0004.05,0003.53
2022-09-26 22:39:00,,0831.5,5.00,0.00,29.9,28.8,00.0,38.4,31.9,15.6,0000.0,0011.38,0004.05,0003.55
2022-09-26 22:40:00,,0831.5,5.00,0.00,29.9,28.2,00.0,38.4,31.9,15.7,0000.0,0011.89,0004.09,0003.56
2022-09-26 22:41:00,,0831.4,4.99,0.00,29.8,26.7,00.0,38.4,31.7,15.8,0000.0,0012.00,0004.10,0003.56
2022-09-26 22:42:00,,0831.4,5.00,0.00,29.8,26.4,00.0,38.4,31.6,15.6,0000.0,0011.94,0004.11,0003.57
2022-09-26 22:43:00,,0831.5,5.00,0.00,29.7,26.7,00.0,38.4,31.5,15.9,0000.0,0011.72,0004.12,0003.59
2022-09-26 22:44:00,,0831.4,5.00,0.00,29.7,27.0,00.0,38.3,31.4,16.1,0000.0,0010.31,0004.12,0003.60
2022-09-26 22:45:00,,0831.4,5.01,0.00,29.7,27.4,00.0,38.3,31.4,15.7,0000.0,0009.95,0004.14,0003.61
2022-09-26 22:46:00,,0831.5,4.99,0.00,29.7,27.7,00.0,38.3,31.5,15.4,0000.0,0009.17,0004.16,0003.61
2022-09-26 22:47:00,,0831.4,5.01,0.00,29.7,28.0,00.0,38.3,31.6,15.6,0000.0,0008.73,0004.14,0003.60
2022-09-26 22:48:00,,0831.5,4.99,0.00,29.7,28.2,00.0,38.4,31.6,15.5,0000.0,0008.74,0004.15,0003.59
2022-09-26 22:49:00,,0831.5,5.01,0.00,29.8,28.4,00.0,38.4,31.7,15.5,0000.0,0009.26,0004.16,0003.60
2022-09-26 22:50:00,,0831.5,5.00,0.00,29.8,28.6,00.0,38.4,31.8,15.5,0000.0,0009.60,0004.13,0003.58
2022-09-26 22:51:00,,0831.4,5.00,0.00,29.9,28.8,00.0,38.4,31.9,15.6,0000.0,0009.84,0004.09,0003.57
2022-09-26 22:52:00,,0831.5,4.99,0.00,29.9,28.5,00.0,38.4,31.9,15.6,0000.0,0009.75,0004.09,0003.56
2022-09-26 22:53:00,,0831.4,5.00,0.00,29.9,27.1,00.0,38.4,31.7,15.6,0000.0,0009.72,0004.10,0003.56
2022-09-26 22:54:00,,0831.4,5.00,0.00,29.8,26.4,00.0,38.4,31.6,15.6,0000.0,0010.04,0004.09,0003.55
2022-09-26 22:55:00,,0831.4,5.00,0.00,29.8,26.7,00.0,38.4,31.5,15.5,0000.0,0010.43,0004.08,0003.55
2022-09-26 22:56:00,,0831.4,5.00,0.00,29.7,27.0,00.0,38.3,31.4,15.6,0000.0,0010.55,0004.06,0003.54
2022-09-26 22:57:00,,0831.5,5.01,0.00,29.7,27.3,00.0,38.3,31.5,15.9,0000.0,0010.65,0004.06,0003.54
2022-09-26 22:58:00,,0831.4,4.98,0.00,29.7,27.6,00.0,38.3,31.5,15.8,0000.0,0011.17,0004.06,0003.54
2022-09-26 22:59:00,,0831.5,5.01,0.00,29.7,27.9,00.0,38.3,31.5,15.8,0000.0,0011.04,0004.05,0003.55
